Tracking 19827 objects as of 22-Aug-2019
HD Live streaming from Space Station
objects crossing your sky now

NATO 3B

Track NATO 3B now!
NATO 3B is classified as:


NORAD ID: 9785
Int'l Code: 1977-005A
Perigee: 37,058.4 km
Apogee: 37,456.0 km
Inclination: 13.2 °
Period: 1,511.5 minutes
Semi major axis: 43628 km
RCS: 8.6584 m2 (large)
Launch date: January 28, 1977
Source: North Atlantic Treaty Organization (NATO)
Launch site: AIR FORCE EASTERN TEST RANGE (AFETR)
aabbcc
Your satellite tracking list
Your tracking list is empty




NASA's NSSDC Master Catalog

Two Line Element Set (TLE):
1  9785U 77005A   19232.53102296 -.00000092 +00000-0 +00000-0 0  9995
2  9785 013.1522 328.6362 0045569 352.1540 065.6855 00.95269054092921
Source of the keplerian elements: AFSPC